CW8998 Weather Reports


Display with metric or nautical units.
time (UTC)temp
F
wind
direction
speed
MPH
gust
MPH
rain 1hr
in
rain 24hr
in
rain mn
in
humidity
%
barometer
mb
20260901152527 74 288 0.0 2.0 0.00 0.00 0.00 59 1015.3
20260901152028 74 0 0.0 4.0 0.00 0.00 0.00 58 1015.4
20260901151543 74 60 1.0 4.0 0.00 0.00 0.00 59 1015.4
20260901151029 74 55 1.0 3.0 0.00 0.00 0.00 59 1015.3
20260901150527 74 0 0.0 3.0 0.00 0.00 0.00 60 1015.3
20260901150054 73 0 1.0 3.0 0.00 0.00 0.00 63 1015.4
20260901145528 73 0 0.0 2.0 0.00 0.00 0.00 61 1015.5
20260901145028 73 0 1.0 2.0 0.00 0.00 0.00 62 1015.5
20260901144548 73 280 0.0 2.0 0.00 0.00 0.00 61 1015.4
20260901144028 72 321 0.0 2.0 0.00 0.00 0.00 62 1015.4
20260901143530 72 0 0.0 2.0 0.00 0.00 0.00 64 1015.4
20260901143048 71 0 0.0 2.0 0.00 0.00 0.00 65 1015.5
20260901142528 71 0 0.0 2.0 0.00 0.00 0.00 66 1015.4
20260901142026 71 36 0.0 2.0 0.00 0.00 0.00 65 1015.4
20260901141547 71 0 0.0 3.0 0.00 0.00 0.00 66 1015.5
20260901141030 69 296 0.0 3.0 0.00 0.00 0.00 69 1015.5
20260901140529 69 294 0.0 3.0 0.00 0.00 0.00 67 1015.6
20260901140058 69 0 0.0 4.0 0.00 0.00 0.00 69 1015.7
20260901135529 68 0 1.0 4.0 0.00 0.00 0.00 70 1015.6
20260901135033 68 255 1.0 3.0 0.00 0.00 0.00 71 1015.7
20260901134550 68 327 0.0 3.0 0.00 0.00 0.00 72 1015.5
20260901134029 67 270 1.0 6.0 0.00 0.00 0.00 73 1015.5
20260901133529 66 303 0.0 6.0 0.00 0.00 0.00 73 1015.5
20260901133050 66 241 0.0 6.0 0.00 0.00 0.00 74 1015.7
20260901132529 66 0 0.0 7.0 0.00 0.00 0.00 75 1015.7
20260901132030 66 0 0.0 7.0 0.00 0.00 0.00 75 1015.5
20260901131545 66 294 1.0 7.0 0.00 0.00 0.00 75 1015.3
20260901131030 65 0 1.0 4.0 0.00 0.00 0.00 75 1015.3
20260901130525 65 301 0.0 2.0 0.00 0.00 0.00 76 1015.1
20260901130100 65 301 0.0 1.0 0.00 0.00 0.00 77 1015.1
20260901125528 64 0 0.0 3.0 0.00 0.00 0.00 77 1015.0
20260901125027 64 0 0.0 3.0 0.00 0.00 0.00 76 1014.9
20260901124545 64 0 0.0 3.0 0.00 0.00 0.00 76 1014.8
20260901124028 64 313 0.0 2.0 0.00 0.00 0.00 77 1014.8
20260901123528 64 0 0.0 1.0 0.00 0.00 0.00 77 1014.9
20260901123044 64 0 0.0 1.0 0.00 0.00 0.00 77 1014.8
20260901122529 63 0 0.0 1.0 0.00 0.00 0.00 77 1014.8
20260901122025 63 0 0.0 1.0 0.00 0.00 0.00 77 1014.7
20260901121549 63 0 0.0 1.0 0.00 0.00 0.00 77 1014.7
20260901121028 64 0 0.0 2.0 0.00 0.00 0.00 77 1014.6
20260901120525 64 0 0.0 3.0 0.00 0.00 0.00 77 1014.6
20260901120045 63 0 0.0 3.0 0.00 0.00 0.00 78 1014.4
20260901115528 63 264 1.0 3.0 0.00 0.00 0.00 78 1014.4
20260901115024 63 0 0.0 3.0 0.00 0.00 0.00 79 1014.4
20260901114544 64 0 1.0 4.0 0.00 0.00 0.00 79 1014.3
20260901114025 64 179 1.0 4.0 0.00 0.00 0.00 77 1014.2
20260901113525 64 162 0.0 2.0 0.00 0.00 0.00 75 1014.1
20260901113042 65 0 0.0 2.0 0.00 0.00 0.00 75 1014.0
20260901112527 65 243 0.0 2.0 0.00 0.00 0.00 75 1014.0
20260901112028 65 0 0.0 2.0 0.00 0.00 0.00 75 1014.0
20260901111554 65 0 0.0 3.0 0.00 0.00 0.00 75 1013.9
20260901111028 65 0 0.0 3.0 0.00 0.00 0.00 75 1013.9
20260901110526 65 0 0.0 3.0 0.00 0.00 0.00 75 1013.9
20260901110047 65 0 0.0 2.0 0.00 0.00 0.00 75 1013.8
20260901105526 65 0 0.0 4.0 0.00 0.00 0.00 76 1013.6
20260901105028 64 305 1.0 4.0 0.00 0.00 0.00 77 1013.7
20260901104545 64 285 0.0 2.0 0.00 0.00 0.00 78 1013.8
20260901104025 64 0 0.0 2.0 0.00 0.00 0.00 79 1013.9
20260901103525 64 0 0.0 2.0 0.00 0.00 0.00 79 1013.9
20260901103044 65 0 0.0 2.0 0.00 0.00 0.00 80 1013.9
20260901102524 65 180 1.0 3.0 0.00 0.00 0.00 79 1013.9
20260901102025 65 0 0.0 3.0 0.00 0.00 0.00 78 1013.8
20260901101545 65 197 1.0 3.0 0.00 0.00 0.00 77 1013.9
20260901101028 65 226 0.0 4.0 0.00 0.00 0.00 77 1013.8
20260901100526 65 281 1.0 4.0 0.00 0.00 0.00 77 1013.8
20260901100049 65 0 0.0 3.0 0.00 0.00 0.00 78 1013.8
20260901095530 65 0 0.0 3.0 0.00 0.00 0.00 78 1013.7
20260901095029 65 219 0.0 3.0 0.00 0.00 0.00 78 1013.8
20260901094544 66 0 0.0 4.0 0.00 0.00 0.00 78 1013.8
20260901094028 66 0 1.0 4.0 0.00 0.00 0.00 77 1013.6
20260901093529 66 243 1.0 4.0 0.00 0.00 0.00 77 1013.5
20260901093042 65 286 2.0 4.0 0.00 0.00 0.00 78 1013.4
20260901092528 65 277 2.0 4.0 0.00 0.00 0.00 79 1013.4
20260901092028 65 261 2.0 4.0 0.00 0.00 0.00 79 1013.3
20260901091547 65 288 1.0 3.0 0.00 0.00 0.00 80 1013.3
20260901091028 65 0 0.0 3.0 0.00 0.00 0.00 80 1013.4
20260901090532 65 0 0.0 3.0 0.00 0.00 0.00 79 1013.5
20260901090045 65 190 0.0 3.0 0.00 0.00 0.00 79 1013.4
20260901085527 65 0 0.0 4.0 0.00 0.00 0.00 79 1013.5
20260901085029 65 178 1.0 4.0 0.00 0.00 0.00 78 1013.6
20260901084600 65 183 1.0 4.0 0.00 0.00 0.00 78 1013.6
20260901084029 65 175 1.0 4.0 0.00 0.00 0.00 77 1013.5
20260901083528 66 159 0.0 1.0 0.00 0.00 0.00 76 1013.4
20260901083048 66 0 0.0 2.0 0.00 0.00 0.00 76 1013.5
20260901082528 66 159 0.0 2.0 0.00 0.00 0.00 76 1013.4
20260901082027 66 215 0.0 2.0 0.00 0.00 0.00 76 1013.5
20260901081548 66 0 0.0 2.0 0.00 0.00 0.00 76 1013.4
20260901081029 66 156 0.0 2.0 0.00 0.00 0.00 75 1013.3
20260901080529 66 0 0.0 1.0 0.00 0.00 0.00 74 1013.3
20260901080043 66 0 0.0 3.0 0.00 0.00 0.00 74 1013.3
20260901075526 67 0 0.0 3.0 0.00 0.00 0.00 73 1013.4
20260901075029 67 0 1.0 4.0 0.00 0.00 0.00 72 1013.4
20260901074543 67 246 1.0 5.0 0.00 0.00 0.00 73 1013.4
20260901074028 67 142 1.0 6.0 0.00 0.00 0.00 73 1013.3
20260901073529 67 167 2.0 6.0 0.00 0.00 0.00 73 1013.4
20260901073042 67 184 1.0 5.0 0.00 0.00 0.00 72 1013.3
20260901072527 67 159 1.0 4.0 0.00 0.00 0.00 72 1013.3
20260901072029 67 182 1.0 4.0 0.00 0.00 0.00 72 1013.4
20260901071546 67 162 1.0 4.0 0.00 0.00 0.00 73 1013.5
20260901071027 67 157 2.0 4.0 0.00 0.00 0.00 73 1013.6
20260901070528 67 166 1.0 4.0 0.00 0.00 0.00 72 1013.6
20260901070044 67 188 0.0 2.0 0.00 0.00 0.00 73 1013.6
20260901065528 67 182 0.0 3.0 0.00 0.00 0.00 73 1013.7
20260901065028 67 0 0.0 4.0 0.00 0.00 0.00 74 1013.6
20260901064542 67 177 1.0 4.0 0.00 0.00 0.00 73 1013.6
20260901064028 67 169 1.0 4.0 0.00 0.00 0.00 74 1013.8
20260901063528 67 170 1.0 4.0 0.00 0.00 0.00 73 1013.9
20260901063053 67 161 1.0 4.0 0.00 0.00 0.00 73 1014.0
20260901062526 67 0 1.0 3.0 0.00 0.00 0.00 73 1014.0
20260901062025 67 183 1.0 3.0 0.00 0.00 0.00 74 1014.1
20260901061552 67 181 0.0 5.0 0.00 0.00 0.00 75 1014.1
20260901061028 67 175 0.0 5.0 0.00 0.00 0.00 76 1014.1
20260901060530 66 165 2.0 5.0 0.00 0.00 0.00 77 1014.0
20260901060049 66 175 1.0 4.0 0.00 0.00 0.00 79 1014.0
20260901055528 66 0 1.0 4.0 0.00 0.00 0.00 79 1014.1
20260901055026 67 0 0.0 2.0 0.00 0.00 0.00 77 1014.1
20260901054544 67 0 0.0 1.0 0.00 0.00 0.00 77 1014.0
20260901054028 67 165 0.0 2.0 0.00 0.00 0.00 76 1014.0
20260901053528 67 0 0.0 2.0 0.00 0.00 0.00 74 1014.1
20260901053103 68 0 0.0 2.0 0.00 0.00 0.00 75 1014.0
20260901052527 67 0 0.0 1.0 0.00 0.00 0.00 75 1014.1
20260901052027 67 0 0.0 1.0 0.00 0.00 0.00 75 1014.1
20260901051551 67 0 0.0 1.0 0.00 0.00 0.00 76 1014.0
20260901051028 67 0 0.0 1.0 0.00 0.00 0.00 77 1014.0
20260901050526 67 0 0.0 1.0 0.00 0.00 0.00 77 1014.0
20260901050056 66 0 0.0 1.0 0.00 0.00 0.00 79 1014.0
20260901045527 66 0 0.0 2.0 0.00 0.00 0.00 81 1013.9
20260901045026 66 0 0.0 2.0 0.00 0.00 0.00 82 1013.9
20260901044547 66 0 0.0 2.0 0.00 0.00 0.00 82 1013.9
20260901044026 67 0 0.0 2.0 0.00 0.00 0.00 81 1013.9
20260901043526 67 0 0.0 2.0 0.00 0.00 0.00 79 1013.9
20260901043043 68 165 0.0 2.0 0.00 0.00 0.00 76 1014.0
20260901042527 68 0 0.0 1.0 0.00 0.00 0.00 74 1013.8
20260901042029 68 0 0.0 0.0 0.00 0.00 0.00 74 1013.8
20260901041542 68 0 0.0 1.0 0.00 0.00 0.00 74 1013.8
20260901041029 68 0 0.0 1.0 0.00 0.00 0.00 74 1013.7
20260901040529 68 0 0.0 1.0 0.00 0.00 0.00 74 1013.7
20260901040056 68 0 0.0 0.0 0.00 0.00 0.00 74 1013.5
20260901035526 69 0 0.0 0.0 0.00 0.00 0.00 74 1013.4
20260901035029 69 0 0.0 0.0 0.00 0.00 0.00 74 1013.4
20260901034545 69 0 0.0 0.0 0.00 0.00 0.00 74 1013.4
20260901034026 69 0 0.0 0.0 0.00 0.00 0.00 73 1013.4
20260901033524 69 0 0.0 0.0 0.00 0.00 0.00 74 1013.4
20260901033052 69 0 0.0 0.0 0.00 0.00 0.00 74 1013.4
20260901032526 70 0 0.0 1.0 0.00 0.00 0.00 75 1013.5
20260901032024 70 0 0.0 2.0 0.00 0.00 0.00 74 1013.6
20260901031553 70 159 0.0 2.0 0.00 0.00 0.00 72 1013.5
20260901031025 71 0 0.0 2.0 0.00 0.00 0.00 70 1013.5
20260901030528 71 0 0.0 1.0 0.00 0.00 0.00 70 1013.5
20260901030050 71 0 0.0 1.0 0.00 0.00 0.00 70 1013.4
20260901025530 71 0 0.0 1.0 0.00 0.00 0.00 71 1013.4
20260901025028 71 0 0.0 1.0 0.00 0.00 0.00 71 1013.3
20260901024548 71 0 0.0 2.0 0.00 0.00 0.00 72 1013.3
20260901024027 71 0 0.0 3.0 0.00 0.00 0.00 71 1013.3
20260901023531 72 167 0.0 3.0 0.00 0.00 0.00 69 1013.2
20260901023044 72 0 0.0 4.0 0.00 0.00 0.00 68 1013.2
20260901022528 72 167 0.0 4.0 0.00 0.00 0.00 67 1013.2
20260901022026 73 159 0.0 4.0 0.00 0.00 0.00 66 1013.1
20260901021542 73 0 0.0 4.0 0.00 0.00 0.00 66 1013.0
20260901021024 73 170 0.0 2.0 0.00 0.00 0.00 65 1013.1
20260901020529 73 178 0.0 4.0 0.00 0.00 0.00 65 1013.0
20260901020043 74 173 0.0 4.0 0.00 0.00 0.00 65 1013.0
20260901015524 74 162 0.0 4.0 0.00 0.00 0.00 64 1013.0
20260901015029 75 171 1.0 4.0 0.00 0.00 0.00 63 1012.9
20260901014551 75 167 0.0 3.0 0.00 0.00 0.00 61 1012.8
20260901014029 75 167 0.0 3.0 0.00 0.00 0.00 61 1012.8
20260901013528 76 0 0.0 2.0 0.00 0.00 0.00 61 1012.8
20260901013049 76 0 0.0 2.0 0.00 0.00 0.00 59 1012.8
20260901012524 77 186 0.0 2.0 0.00 0.00 0.00 56 1012.7
20260901012027 77 176 0.0 3.0 0.00 0.00 0.00 54 1012.5
20260901011540 78 163 0.0 3.0 0.00 0.00 0.00 53 1012.5
20260901011028 78 175 0.0 2.0 0.00 0.00 0.00 53 1012.4
20260901010527 78 0 0.0 3.0 0.00 0.00 0.00 53 1012.4
20260901010050 78 0 0.0 4.0 0.00 0.00 0.00 53 1012.4
20260901005528 79 180 1.0 4.0 0.00 0.00 0.00 52 1012.4
20260901005026 80 169 1.0 4.0 0.00 0.00 0.00 52 1012.5
20260901004549 80 202 0.0 3.0 0.00 0.00 0.00 51 1012.5
20260901004028 80 176 0.0 3.0 0.00 0.00 0.00 51 1012.5
20260901003528 81 182 1.0 5.0 0.00 0.00 0.00 50 1012.4
20260901003053 81 174 1.0 5.0 0.00 0.00 0.00 49 1012.5
20260901002529 82 167 1.0 3.0 0.00 0.00 0.00 48 1012.4
20260901002030 82 184 1.0 4.0 0.00 0.00 0.00 46 1012.4
20260901001553 82 0 1.0 4.0 0.00 0.00 0.00 45 1012.4
20260901001027 83 217 1.0 3.0 0.00 0.00 0.00 44 1012.4
20260901000529 83 180 1.0 4.0 0.00 0.00 0.00 43 1012.3
20260901000049 84 186 1.0 4.0 0.00 0.00 0.00 43 1012.4
20260831235528 84 167 1.0 4.0 0.00 0.00 0.00 42 1012.4
20260831235029 85 194 1.0 4.0 0.00 0.00 0.00 42 1012.5
20260831234549 85 231 1.0 7.0 0.00 0.00 0.00 41 1012.4
20260831234028 86 215 0.0 7.0 0.00 0.00 0.00 41 1012.4
20260831233531 86 273 1.0 5.0 0.00 0.00 0.00 42 1012.3
20260831233048 86 236 1.0 4.0 0.00 0.00 0.00 41 1012.3
20260831232528 87 0 0.0 4.0 0.00 0.00 0.00 40 1012.3
20260831232028 87 234 1.0 4.0 0.00 0.00 0.00 41 1012.4
20260831231546 86 84 0.0 4.0 0.00 0.00 0.00 41 1012.4
20260831231029 86 0 1.0 7.0 0.00 0.00 0.00 40 1012.3
20260831230528 87 124 2.0 7.0 0.00 0.00 0.00 40 1012.3
20260831230100 87 244 3.0 7.0 0.00 0.00 0.00 39 1012.3
20260831225527 87 181 1.0 4.0 0.00 0.00 0.00 38 1012.5
20260831225032 88 254 1.0 4.0 0.00 0.00 0.00 38 1012.4
20260831224554 88 0 1.0 3.0 0.00 0.00 0.00 37 1012.4
20260831224029 88 293 0.0 7.0 0.00 0.00 0.00 37 1012.5
20260831223529 87 269 3.0 7.0 0.00 0.00 0.00 36 1012.3
20260831223041 88 294 1.0 4.0 0.00 0.00 0.00 35 1012.3
20260831222529 88 288 1.0 7.0 0.00 0.00 0.00 34 1012.3
20260831222028 87 0 1.0 7.0 0.00 0.00 0.00 36 1012.2
20260831221554 87 271 2.0 8.0 0.00 0.00 0.00 37 1012.3
20260831221029 87 347 1.0 8.0 0.00 0.00 0.00 36 1012.3
20260831220529 87 246 1.0 7.0 0.00 0.00 0.00 37 1012.3
20260831220044 87 306 3.0 7.0 0.00 0.00 0.00 36 1012.3
20260831215529 87 249 1.0 7.0 0.00 0.00 0.00 37 1012.4
20260831215030 87 281 3.0 7.0 0.00 0.00 0.00 36 1012.3
20260831214547 88 307 1.0 6.0 0.00 0.00 0.00 37 1012.1
20260831214028 87 313 2.0 6.0 0.00 0.00 0.00 37 1012.2
20260831213529 88 243 1.0 8.0 0.00 0.00 0.00 36 1012.1
20260831213056 87 311 3.0 8.0 0.00 0.00 0.00 36 1012.2
20260831212528 87 278 5.0 8.0 0.00 0.00 0.00 37 1012.2
20260831212029 87 281 2.0 8.0 0.00 0.00 0.00 40 1012.1
20260831211600 87 213 2.0 8.0 0.00 0.00 0.00 40 1012.2
20260831211028 87 283 2.0 8.0 0.00 0.00 0.00 41 1012.3
20260831210530 87 293 3.0 8.0 0.00 0.00 0.00 40 1012.3
20260831210044 87 279 2.0 7.0 0.00 0.00 0.00 39 1012.3
20260831205529 88 263 2.0 6.0 0.00 0.00 0.00 39 1012.3
20260831205029 87 269 2.0 6.0 0.00 0.00 0.00 40 1012.4
20260831204543 87 321 3.0 10.0 0.00 0.00 0.00 39 1012.3
20260831204027 87 293 4.0 10.0 0.00 0.00 0.00 41 1012.3
20260831203529 86 323 1.0 9.0 0.00 0.00 0.00 43 1012.3
20260831203052 87 316 3.0 9.0 0.00 0.00 0.00 42 1012.2
20260831202531 87 302 2.0 9.0 0.00 0.00 0.00 43 1012.3
20260831202027 87 284 2.0 9.0 0.00 0.00 0.00 43 1012.5
20260831201552 87 200 3.0 9.0 0.00 0.00 0.00 42 1012.3
20260831201028 87 313 2.0 6.0 0.00 0.00 0.00 41 1012.3
20260831200527 87 336 2.0 8.0 0.00 0.00 0.00 41 1012.3
20260831200043 86 294 1.0 8.0 0.00 0.00 0.00 41 1012.2
20260831195529 87 292 3.0 9.0 0.00 0.00 0.00 41 1012.2
20260831195029 86 215 1.0 9.0 0.00 0.00 0.00 42 1012.0
20260831194615 85 286 1.0 8.0 0.00 0.00 0.00 42 1012.0
20260831194032 85 251 4.0 8.0 0.00 0.00 0.00 41 1012.0
20260831193529 86 5 2.0 7.0 0.00 0.00 0.00 40 1012.1
20260831193042 86 101 1.0 10.0 0.00 0.00 0.00 42 1012.0
20260831192529 85 266 5.0 10.0 0.00 0.00 0.00 40 1012.0
20260831192032 86 291 1.0 9.0 0.00 0.00 0.00 39 1012.0
20260831191546 86 259 2.0 9.0 0.00 0.00 0.00 39 1012.0
20260831191029 85 24 3.0 9.0 0.00 0.00 0.00 42 1012.0
20260831190529 86 338 3.0 7.0 0.00 0.00 0.00 43 1012.0
20260831190044 86 253 3.0 7.0 0.00 0.00 0.00 44 1012.0
20260831185529 85 329 1.0 9.0 0.00 0.00 0.00 46 1011.9
20260831185028 84 340 4.0 9.0 0.00 0.00 0.00 45 1011.9
20260831184607 84 324 2.0 8.0 0.00 0.00 0.00 47 1012.0
20260831184026 84 242 3.0 8.0 0.00 0.00 0.00 46 1012.1
20260831183529 83 30 2.0 9.0 0.00 0.00 0.00 46 1012.0
20260831183054 83 318 4.0 9.0 0.00 0.00 0.00 48 1012.0
20260831182530 84 355 4.0 9.0 0.00 0.00 0.00 46 1012.0
20260831182031 85 287 3.0 9.0 0.00 0.00 0.00 46 1011.9
20260831181551 84 360 2.0 8.0 0.00 0.00 0.00 47 1012.1
20260831181027 84 23 3.0 9.0 0.00 0.00 0.00 46 1012.1
20260831180528 83 280 3.0 9.0 0.00 0.00 0.00 48 1012.1
20260831180044 83 293 3.0 11.0 0.00 0.00 0.00 48 1012.2
20260831175529 83 325 5.0 11.0 0.00 0.00 0.00 50 1012.0
20260831175029 82 280 4.0 12.0 0.00 0.00 0.00 51 1012.0
20260831174557 82 271 5.0 12.0 0.00 0.00 0.00 53 1012.1
20260831174030 82 182 4.0 9.0 0.00 0.00 0.00 53 1012.1
20260831173530 83 218 4.0 9.0 0.00 0.00 0.00 54 1012.1
20260831173051 82 238 3.0 9.0 0.00 0.00 0.00 56 1012.1
20260831172529 81 274 5.0 9.0 0.00 0.00 0.00 57 1012.2
20260831172027 81 272 1.0 9.0 0.00 0.00 0.00 58 1012.2
20260831171545 82 314 2.0 9.0 0.00 0.00 0.00 57 1012.2
20260831171029 80 273 2.0 8.0 0.00 0.00 0.00 57 1012.2
20260831170530 80 334 4.0 9.0 0.00 0.00 0.00 56 1012.2
20260831170128 80 20 3.0 9.0 0.00 0.00 0.00 55 1012.3
20260831165528 80 336 3.0 10.0 0.00 0.00 0.00 56 1012.3
20260831165029 79 323 4.0 10.0 0.00 0.00 0.00 57 1012.3
20260831164551 79 297 5.0 11.0 0.00 0.00 0.00 58 1012.3
20260831164028 79 271 4.0 11.0 0.00 0.00 0.00 60 1012.3
20260831163526 79 304 4.0 10.0 0.00 0.00 0.00 61 1012.2
20260831163048 79 301 3.0 8.0 0.00 0.00 0.00 62 1012.1
20260831162531 78 304 4.0 11.0 0.00 0.00 0.00 62 1012.0
20260831162029 78 17 4.0 11.0 0.00 0.00 0.00 66 1012.0
20260831161546 78 294 3.0 12.0 0.00 0.00 0.00 65 1012.0
20260831161028 78 291 5.0 12.0 0.00 0.00 0.00 65 1012.0
20260831160528 77 297 5.0 11.0 0.00 0.00 0.00 67 1012.1
20260831160043 77 298 6.0 11.0 0.00 0.00 0.00 68 1012.0
20260831155529 77 314 2.0 11.0 0.00 0.00 0.00 72 1011.9
20260831155028 77 273 4.0 11.0 0.00 0.00 0.00 74 1011.9
20260831154619 77 349 3.0 8.0 0.00 0.00 0.00 73 1011.9
20260831154027 76 5 3.0 11.0 0.00 0.00 0.00 74 1011.7
20260831153529 76 325 3.0 11.0 0.00 0.00 0.00 73 1011.7
20260831153051 77 319 4.0 9.0 0.00 0.00 0.00 73 1011.6